Theta_e
281 281 281 280 280 280 281 281 281 281 281 281 282 283 283 284 284 285 285 285 285 285 285 285 285 285 285 285 285 286 286 286 286 285 286 286 286 286 285 285 285 285 285 285 285 284 284 285 285 285 284 284 286 286 285 285 285 286 286 286 286 285 284 283 283 281 282 282 283 283 285 285 282 283 282 281 282 282 283 281 282 281 279 279 281
281 281 281 281 280 280 280 280 281 280 280 280 281 282 283 283 284 284 284 285 285 285 285 286 286 285 285 285 285 285 286 286 286 285 286 285 285 286 286 285 285 284 284 284 284 285 285 284 285 284 284 284 285 285 286 285 285 285 285 285 284 285 285 284 283 282 281 280 281 282 283 285 282 282 282 280 280 280 280 280 280 279 279 278 279
282 282 282 281 280 280 280 280 280 279 280 280 280 282 282 283 283 283 283 284 284 284 285 285 285 285 285 285 285 285 285 286 286 286 286 285 285 285 286 285 284 284 284 284 284 284 284 284 284 284 285 284 285 285 285 285 285 286 286 285 285 284 284 285 283 282 281 280 281 281 282 283 283 281 282 281 280 280 279 279 279 280 280 279 279
281 282 282 282 282 280 280 281 281 280 279 280 280 281 282 282 283 283 283 283 283 284 284 284 284 284 284 284 285 285 285 285 285 285 285 285 285 285 285 285 285 284 284 284 284 284 284 284 284 284 283 284 284 284 285 285 285 285 286 286 285 285 284 284 285 284 281 281 280 281 282 282 281 281 282 280 279 278 279 278 279 279 279 280 279
280 280 281 281 281 281 280 280 280 281 281 280 279 280 281 281 281 282 282 283 283 283 283 284 284 284 284 284 284 284 284 285 285 285 285 284 285 285 285 285 285 284 284 284 285 284 284 284 284 283 283 283 284 284 284 284 285 285 285 286 285 285 284 284 283 282 282 281 280 281 281 281 280 280 281 280 279 278 278 278 279 279 279 279 280
280 279 279 279 279 279 280 280 281 281 282 282 281 280 280 280 281 281 281 282 282 282 282 283 283 283 283 283 283 284 284 284 284 284 284 285 285 285 285 285 285 285 285 284 284 285 285 285 284 284 284 284 284 284 284 284 284 284 285 285 285 285 284 283 283 280 282 281 281 279 279 280 279 279 281 280 279 277 277 277 278 278 278 278 279
279 279 279 278 278 278 278 279 280 281 281 282 282 282 281 280 280 280 281 281 281 281 282 282 282 282 282 283 283 283 283 284 284 284 284 285 285 285 285 285 285 285 285 285 285 285 285 285 285 285 285 285 285 284 284 284 284 284 285 285 285 284 284 283 283 281 280 280 280 280 280 280 280 279 280 280 279 278 277 276 276 278 278 278 277
279 278 278 278 278 278 278 278 279 280 281 282 282 281 281 280 279 279 279 280 280 280 280 281 282 282 282 282 282 283 283 283 283 283 283 284 284 284 285 285 284 284 285 285 285 285 285 285 285 285 285 286 285 285 285 284 284 284 284 284 284 284 284 283 282 282 280 279 280 279 279 279 278 277 278 278 277 276 277 277 277 277 277 278 278
278 278 278 278 278 278 278 278 278 278 279 280 280 280 280 279 279 278 278 278 280 280 281 281 281 280 280 280 280 281 282 283 284 283 282 282 283 283 284 284 284 284 284 284 284 285 285 285 285 285 286 286 287 287 287 287 285 284 284 284 284 284 284 283 283 282 281 280 279 279 278 278 278 277 276 277 277 277 278 279 278 278 278 277 277
278 277 277 277 277 277 278 278 278 278 277 278 279 279 279 278 278 277 277 277 278 279 279 280 280 280 280 280 280 281 281 282 284 287 288 285 283 283 284 284 284 284 284 284 284 284 284 285 285 285 286 286 286 287 288 288 288 286 285 284 284 284 284 283 282 282 282 280 279 278 277 278 278 277 277 278 279 280 278 278 277 277 277 276 277
278 277 277 277 277 277 277 277 278 277 277 277 277 277 277 277 276 276 276 276 276 277 278 277 278 279 279 279 279 280 281 282 285 287 289 290 287 284 284 284 284 284 284 284 283 284 284 285 285 285 285 285 286 287 288 288 288 289 288 287 286 285 284 283 283 283 282 282 281 279 279 279 278 278 278 279 279 279 278 278 278 277 276 275 274
277 277 277 277 277 277 277 277 277 277 276 276 277 277 277 276 276 275 275 275 275 276 275 275 276 277 278 278 279 279 280 283 286 286 287 287 287 285 284 283 283 283 283 283 284 284 284 284 285 285 285 285 284 285 286 287 288 288 288 288 288 288 288 286 284 283 283 282 282 281 280 280 280 279 278 279 278 279 279 278 278 277 277 276 276
277 277 277 277 277 277 277 276 276 276 276 276 276 276 275 275 275 274 274 274 275 274 274 274 275 275 276 277 277 278 279 283 284 285 286 286 287 286 284 283 282 283 283 283 283 283 283 284 284 285 286 285 285 285 284 284 286 287 288 288 288 289 289 289 289 286 285 283 283 282 281 281 280 279 280 279 280 278 278 278 278 278 278 278 278
276 277 277 276 276 276 276 275 276 276 276 275 275 275 275 274 274 274 274 274 273 273 273 273 274 274 275 275 276 276 277 281 283 284 285 285 286 285 283 282 282 282 282 283 283 283 283 283 283 284 285 285 285 285 284 284 284 284 284 285 285 286 288 289 288 288 287 285 284 283 284 283 281 281 281 281 279 278 278 278 279 278 278 278 280
276 276 276 276 276 275 275 275 275 275 275 275 274 274 274 274 274 274 273 273 272 272 272 272 273 273 273 274 274 275 276 281 282 283 284 285 285 285 283 282 282 282 282 283 283 283 283 283 283 283 284 284 285 285 284 284 284 284 283 284 284 285 285 285 286 286 286 286 285 284 285 284 283 282 281 282 281 281 281 280 280 280 280 280 278
275 275 275 275 275 275 274 274 274 274 274 273 273 273 273 273 273 273 273 272 272 272 272 272 272 272 272 273 273 273 275 279 281 282 283 284 285 283 282 281 281 281 281 282 282 283 283 283 283 283 283 284 285 287 287 285 284 283 283 283 283 284 284 286 287 288 287 286 286 285 285 284 286 283 282 282 281 281 282 281 280 279 277 276 275
273 274 274 274 274 274 274 273 273 272 272 271 271 271 271 271 271 272 271 271 271 271 271 271 271 271 271 271 271 272 273 277 279 280 281 282 282 281 281 281 281 280 280 281 281 282 282 283 283 283 283 283 286 288 288 288 284 283 282 282 283 283 283 285 287 289 289 289 289 289 289 289 289 289 287 287 283 283 281 279 278 278 277 275 273
272 272 272 272 272 272 272 271 271 270 270 269 269 269 270 270 270 270 270 269 269 269 270 269 270 270 270 270 271 271 272 275 278 279 280 281 281 278 278 278 278 279 279 280 280 280 281 284 284 283 283 283 287 288 288 287 285 284 283 282 282 282 282 284 284 285 288 288 289 289 288 288 288 290 289 288 287 285 280 278 279 278 276 277 274
271 270 270 270 270 270 270 269 269 268 267 267 267 267 267 267 268 268 268 268 268 268 269 268 269 269 270 270 272 271 271 273 276 278 279 280 279 277 276 276 277 278 278 279 280 280 280 282 284 284 284 285 287 288 288 287 285 284 283 282 281 281 282 283 283 282 282 283 284 285 284 285 285 285 285 288 287 285 282 281 280 278 277 277 276
269 269 269 269 268 268 267 267 266 266 265 265 265 265 266 266 266 266 266 266 266 266 267 267 266 267 268 268 268 269 269 270 272 276 277 278 279 276 275 274 273 274 276 277 277 278 279 280 282 286 287 288 288 289 289 289 285 284 284 282 281 281 283 283 283 282 282 282 282 282 282 282 282 283 283 284 284 283 282 281 281 280 279 278 276
268 267 267 266 266 265 265 264 263 263 264 263 264 264 264 264 264 263 263 264 264 264 264 264 264 265 266 266 267 267 268 268 269 274 276 277 277 277 273 273 273 273 274 275 276 277 278 279 280 284 286 287 288 289 289 289 288 285 284 283 283 284 285 282 282 283 282 281 281 281 281 281 281 282 282 283 283 282 282 282 281 281 280 279 277
266 265 264 264 263 263 262 262 263 262 262 262 262 262 262 263 262 262 262 262 262 262 262 262 263 263 264 264 265 265 267 270 268 271 274 275 276 277 273 272 273 273 273 274 276 277 278 279 279 282 285 286 287 288 289 289 289 287 285 286 287 287 284 283 282 282 282 281 280 280 280 280 280 280 280 281 282 281 280 280 280 280 281 281 279
264 263 262 262 261 261 261 261 261 261 261 261 261 261 261 261 261 261 261 261 260 260 261 261 261 261 262 263 264 265 265 267 270 269 272 274 275 276 276 275 277 275 274 274 274 276 278 279 280 283 285 286 287 287 288 289 289 287 288 288 287 287 286 283 281 281 281 280 280 279 279 279 279 279 279 280 281 280 280 280 280 280 279 278 279
262 261 261 260 260 260 260 260 261 261 260 261 260 260 260 260 260 260 260 260 260 260 260 260 260 260 261 261 263 264 265 266 269 271 270 272 274 275 275 276 277 275 275 275 276 277 278 278 279 283 284 285 286 287 288 288 287 288 289 288 288 287 284 283 281 280 279 279 278 278 278 279 279 279 279 280 280 280 279 279 279 279 277 276 276
260 259 259 259 259 259 260 260 260 260 260 260 259 260 259 260 259 260 260 259 259 259 259 260 259 260 260 260 261 262 264 265 266 268 271 271 272 273 274 276 277 278 275 276 278 278 280 282 283 283 283 284 285 286 287 287 288 288 288 288 287 285 284 283 281 280 278 278 278 278 278 278 279 279 280 280 279 279 278 277 277 276 274 274 274
259 258 258 259 259 259 259 259 259 260 260 260 260 260 259 259 259 259 259 259 259 259 259 259 259 259 259 260 260 261 262 263 263 264 266 267 268 270 272 273 274 276 278 277 280 282 283 283 283 283 283 283 283 283 283 284 286 287 287 287 286 285 284 283 281 279 278 278 278 277 278 278 278 279 279 279 277 276 276 274 273 271 271 270 270
258 258 258 258 259 259 258 258 259 259 259 260 260 260 260 259 259 259 259 258 258 258 259 259 259 259 259 259 259 260 261 261 262 262 263 264 264 266 268 269 272 273 273 275 279 279 281 282 282 283 283 283 284 284 285 285 284 285 285 286 285 285 284 283 281 280 279 278 278 278 278 278 278 277 275 276 275 275 275 273 272 271 270 270 268
258 258 258 258 258 258 258 259 259 259 259 259 258 258 259 259 258 258 258 258 258 258 258 258 259 259 259 259 260 260 260 260 261 261 262 264 264 266 266 267 268 269 270 272 274 278 279 280 281 280 280 281 282 282 282 283 283 283 284 284 284 284 284 284 283 281 280 279 278 278 277 277 275 274 275 275 274 274 274 272 271 270 270 270 267
258 257 258 258 258 259 258 258 258 258 258 258 258 258 258 258 258 259 260 260 260 259 260 260 261 262 261 261 261 261 261 262 263 267 266 269 267 267 267 268 268 269 272 275 273 274 275 277 277 277 278 279 279 280 281 281 282 282 282 283 283 283 283 282 280 280 279 279 277 277 276 276 274 274 273 273 273 273 273 271 271 270 270 270 268
257 257 258 257 258 258 258 257 257 257 257 257 257 257 261 265 264 261 261 266 268 270 269 264 264 265 264 265 265 264 263 265 270 272 273 273 274 274 274 274 275 273 275 277 275 273 273 273 275 276 277 277 278 279 279 280 281 281 281 282 282 282 282 281 280 280 279 278 277 277 276 275 273 273 272 272 272 271 272 272 269 269 269 268 268
257 257 257 257 257 258 257 257 257 257 257 257 257 257 257 259 265 267 267 267 268 269 270 271 271 271 267 265 267 271 272 272 273 272 273 273 273 274 274 274 275 275 276 273 271 272 272 273 274 276 277 278 278 278 279 280 280 280 280 281 281 281 281 280 279 279 278 277 277 276 275 274 273 273 272 272 270 270 270 270 269 269 268 269 268
257 257 257 257 257 257 257 257 257 257 257 257 257 256 256 256 257 263 266 267 268 269 269 270 270 270 271 269 268 266 269 271 272 272 272 273 273 273 274 274 275 275 276 276 271 271 272 273 273 275 277 277 277 278 279 279 279 279 279 279 279 280 280 279 279 279 277 277 276 275 274 274 273 272 272 271 269 269 268 268 268 268 268 269 268
257 257 257 257 257 257 257 257 257 257 256 256 256 257 256 256 256 256 259 265 267 267 268 269 270 270 270 271 271 270 270 271 272 272 272 272 273 273 274 274 275 276 276 272 270 270 271 272 273 274 276 277 278 278 278 279 279 279 279 279 279 279 279 279 279 278 277 276 276 274 274 273 272 271 270 269 268 267 268 267 268 268 268 267 267
257 257 257 257 257 257 257 257 257 257 257 257 257 257 257 257 257 257 257 257 259 262 266 267 268 269 269 270 270 270 271 271 271 272 272 273 273 274 274 272 275 276 274 270 270 270 271 272 273 274 275 277 278 278 278 278 278 279 279 279 279 279 278 278 277 276 276 275 274 273 273 272 271 270 269 268 268 268 267 267 267 267 267 267 267
257 257 258 258 257 257 257 257 257 257 257 257 257 257 257 258 258 258 257 257 257 257 258 259 264 268 265 267 269 271 271 271 272 272 273 273 274 274 274 270 269 270 270 271 271 271 271 272 273 274 275 276 277 277 277 278 278 278 278 278 278 277 276 276 276 275 274 274 273 272 272 271 271 270 269 268 267 267 267 267 267 267 267 267 267
257 257 257 257 257 257 257 257 257 257 257 257 258 258 259 259 258 258 258 258 258 258 258 259 260 264 268 269 270 270 271 271 272 272 273 273 274 274 269 268 268 269 269 270 270 271 272 272 274 275 277 277 277 277 277 278 278 278 278 277 275 275 274 274 274 273 273 272 272 272 271 271 270 270 269 268 268 267 267 267 267 267 267 267 267
256 256 256 257 257 257 257 257 257 257 260 259 259 259 259 259 259 259 258 258 258 258 259 259 260 260 264 263 265 268 270 271 271 272 272 273 274 271 269 269 269 270 269 269 270 271 271 272 275 276 277 277 277 277 277 277 278 277 277 275 274 274 273 273 273 273 272 271 271 271 270 270 270 269 268 267 267 267 267 266 266 266 266 266 267
256 256 256 257 257 257 257 257 257 259 258 258 258 258 258 258 258 259 258 258 259 259 259 259 261 259 259 260 266 265 264 269 270 270 270 270 269 269 269 270 272 271 271 270 271 271 271 273 274 275 276 276 276 277 277 277 277 276 275 273 273 273 274 274 274 273 272 271 271 270 270 269 269 269 268 267 266 266 266 266 266 266 266 266 266
256 257 258 258 259 258 257 257 257 257 257 258 258 258 258 258 258 258 258 259 259 259 259 259 259 260 261 262 262 265 265 263 263 264 266 267 269 270 271 271 272 272 273 273 273 273 273 274 275 276 276 276 276 277 277 276 275 275 274 272 272 272 273 272 272 271 271 270 270 269 269 268 268 268 268 267 266 266 266 266 266 266 265 265 265
256 256 256 258 257 257 257 257 257 257 257 257 257 258 258 258 258 258 259 259 259 259 260 260 260 261 262 263 263 264 264 265 266 267 267 268 269 271 271 271 271 272 273 274 274 275 276 276 277 275 274 276 276 276 276 275 274 273 272 272 271 271 272 271 271 270 270 269 269 268 268 268 268 268 267 267 266 266 265 265 265 265 265 265 265
255 255 256 257 257 257 257 257 257 257 257 258 258 258 258 259 259 260 260 260 260 260 261 261 262 263 264 265 270 270 267 267 267 268 268 269 269 269 269 270 271 272 273 274 274 275 276 277 275 274 274 274 275 275 274 274 273 272 271 271 271 271 271 270 270 270 269 268 268 267 267 267 267 267 266 266 267 266 266 266 265 265 265 265 265
255 255 255 255 256 256 256 256 256 257 257 258 258 258 259 259 259 260 260 260 261 261 261 262 262 263 265 268 268 269 265 264 265 265 266 266 266 267 268 269 270 271 272 272 274 274 272 271 271 271 272 273 274 273 273 273 272 271 271 270 270 270 269 269 269 268 268 267 267 267 267 266 266 266 266 268 265 265 265 265 264 264 264 264 265
255 255 255 256 255 255 256 256 256 256 257 257 258 259 259 259 259 259 260 260 260 260 260 260 261 262 262 265 265 265 262 262 263 263 264 264 264 265 266 267 268 269 270 271 271 271 270 270 270 270 272 273 273 273 273 273 272 271 270 270 270 269 268 268 267 267 267 266 266 266 266 266 266 266 265 265 265 265 264 264 264 264 264 264 264
255 255 255 255 255 255 256 256 256 256 257 258 258 258 258 259 259 259 259 259 259 260 259 260 260 260 260 261 262 261 260 261 261 262 262 263 263 263 264 265 266 267 269 269 270 270 271 271 271 271 271 271 272 272 272 271 271 270 270 269 269 268 268 267 267 266 266 266 265 265 266 266 266 265 265 264 264 264 264 264 264 264 264 264 264
254 254 254 254 254 254 255 256 256 256 257 257 256 256 257 257 257 258 258 258 259 258 259 259 259 259 259 259 259 259 259 259 260 261 261 261 261 262 262 263 264 265 265 266 267 269 269 270 270 269 269 269 269 270 270 270 270 270 270 269 268 268 267 267 267 267 267 266 265 265 265 265 265 264 264 264 264 264 263 263 263 264 263 263 263
255 254 254 254 254 255 255 255 256 255 255 255 255 255 256 256 257 257 258 258 258 258 258 258 258 258 258 258 258 258 258 259 259 259 260 260 260 261 261 262 262 263 264 264 265 266 267 267 267 267 267 267 268 269 269 269 269 269 269 269 269 268 268 268 267 267 266 266 266 265 265 265 264 264 264 264 264 264 264 264 264 263 263 263 263
253 254 254 254 254 254 255 255 254 255 255 255 255 255 255 256 256 257 257 257 257 257 257 257 257 257 257 257 257 258 258 258 258 258 258 259 259 260 261 261 261 262 262 263 264 265 265 266 266 266 267 267 268 268 268 268 268 268 268 268 268 267 267 267 267 267 266 266 266 265 265 264 264 264 264 264 264 263 263 263 263 263 263 263 263
253 253 253 254 254 253 254 254 254 255 254 254 254 255 255 256 255 256 256 256 256 257 256 256 257 257 257 257 258 258 258 258 258 258 258 258 258 259 259 260 260 260 261 262 262 263 264 264 264 265 265 265 265 265 265 266 266 266 266 266 266 266 266 266 266 266 266 266 266 265 265 264 264 264 264 263 263 263 263 263 263 263 263 263 263
253 253 253 253 253 253 253 253 254 253 253 254 254 254 254 255 255 255 255 256 256 256 256 256 256 257 257 257 257 257 257 257 257 257 257 257 258 258 258 259 259 260 260 260 261 261 262 262 263 263 263 263 263 263 264 264 264 265 265 265 266 266 266 266 266 265 265 265 265 265 264 264 263 263 263 263 263 263 263 263 263 263 263 263 263
253 253 253 253 253 253 253 253 253 253 253 253 253 253 254 254 254 254 255 255 256 256 256 256 256 256 256 256 256 256 257 256 256 257 257 257 257 258 258 258 259 259 259 260 260 260 261 261 261 261 261 262 262 262 263 263 264 264 265 265 266 266 266 266 266 266 265 265 264 264 264 263 263 263 263 263 263 262 262 262 262 263 262 262 262
253 253 252 252 252 253 252 252 252 252 252 253 253 253 253 253 253 254 254 255 255 255 256 256 256 256 256 256 257 256 256 256 257 257 257 257 257 258 258 258 258 259 259 259 260 260 260 260 261 261 261 261 262 262 263 264 264 265 265 265 265 265 265 265 265 265 265 264 264 264 263 263 262 262 262 262 262 262 262 262 262 262 262 262 262
Wind_Speed
4 5 4 4 4 4 4 4 5 4 5 5 5 6 6 6 6 6 6 8 8 9 9 9 8 9 9 8 7 8 6 6 4 4 5 6 7 6 7 7 7 7 6 8 6 6 8 9 10 9 6 8 10 9 8 9 8 7 7 6 8 7 8 9 10 7 1 2 7 9 10 12 9 11 11 8 8 9 9 8 9 8 7 7 6
4 4 4 4 5 4 4 3 3 4 5 5 5 6 6 6 6 6 6 7 7 8 9 8 8 9 8 8 8 8 8 7 6 4 6 6 7 6 7 7 8 7 6 7 7 7 7 9 10 8 6 10 11 11 11 9 8 9 9 8 8 8 8 9 9 9 8 3 6 4 8 12 11 9 14 12 11 8 10 8 7 8 8 7 7
4 4 4 3 5 4 4 5 4 4 4 4 4 5 5 6 6 6 7 7 6 7 7 8 8 8 8 8 8 7 7 7 6 5 6 6 8 8 7 8 8 8 7 8 8 7 8 9 9 7 6 9 11 11 10 10 9 11 12 9 9 9 8 9 8 8 10 8 7 10 10 11 13 13 13 10 8 9 10 9 8 7 6 7 7
4 4 4 4 5 4 4 4 5 5 5 3 4 4 4 4 5 6 7 8 8 8 8 7 7 7 7 8 8 8 8 7 6 5 6 6 7 9 9 8 8 8 8 8 8 8 9 9 9 7 7 11 12 10 10 10 10 10 12 11 11 11 8 8 9 9 9 11 7 11 10 11 7 5 8 7 10 9 8 5 4 7 6 6 7
4 5 5 6 6 5 5 5 5 5 5 4 4 4 4 4 4 4 5 6 6 8 9 7 8 7 8 8 9 8 8 8 7 6 6 5 7 8 9 9 8 8 8 8 8 8 9 10 9 7 8 11 11 10 9 10 11 11 12 12 12 11 8 8 9 6 9 12 9 6 7 6 4 5 10 11 8 7 6 8 8 7 6 5 5
2 3 4 5 5 6 6 6 7 7 7 5 4 4 5 5 6 7 6 7 6 5 7 7 7 8 8 8 8 8 8 8 8 7 7 7 7 8 9 9 9 9 8 7 7 7 9 10 9 8 10 12 11 9 9 12 11 12 13 13 11 9 10 10 9 7 9 10 12 8 6 10 7 7 11 11 12 10 7 6 4 6 7 7 6
5 5 6 5 6 6 6 7 8 8 8 7 6 5 5 5 6 7 8 8 10 10 10 10 8 7 9 8 8 9 8 7 8 8 8 8 8 8 9 9 9 8 7 8 8 8 9 9 9 10 12 12 12 11 10 11 11 14 14 13 11 11 11 12 10 10 8 9 7 10 12 9 10 11 9 9 8 8 11 9 7 6 7 8 8
5 5 5 6 6 6 6 5 6 8 8 8 7 7 6 6 5 6 7 9 10 10 9 10 10 9 10 10 9 9 9 8 7 7 8 8 8 8 9 9 9 8 8 8 9 9 10 10 10 10 11 12 11 11 11 12 11 12 12 11 11 12 12 11 10 11 9 9 11 11 9 12 8 2 5 8 8 5 8 10 14 11 11 9 9
4 4 5 6 6 6 6 6 5 6 7 7 8 9 9 8 7 7 6 7 7 8 9 10 10 10 9 9 10 10 10 9 7 7 8 9 8 9 9 9 9 9 9 8 8 9 9 10 11 11 12 15 17 16 15 13 10 12 12 10 10 11 11 10 10 11 10 9 9 7 10 10 10 12 12 13 16 18 15 13 11 9 8 7 6
3 4 4 5 5 5 6 6 7 7 6 7 7 7 8 8 8 9 9 8 8 8 9 9 9 10 11 11 10 9 9 7 11 17 15 10 9 9 9 9 9 9 9 9 9 9 10 10 10 16 17 18 18 19 20 20 21 17 12 9 11 12 12 12 11 11 12 12 11 12 12 13 14 16 17 17 15 9 9 10 10 9 7 6 3
4 5 6 5 5 5 6 6 7 8 8 8 7 7 7 6 6 8 9 9 11 10 10 10 10 9 10 10 11 10 10 10 17 17 18 20 13 10 10 10 9 9 10 10 11 10 9 10 9 12 14 16 17 20 20 22 22 23 23 19 16 14 13 14 14 13 13 13 11 11 14 17 16 15 16 14 13 15 15 15 13 11 13 13 11
5 5 5 5 5 6 6 7 7 8 7 8 9 9 9 8 9 9 9 10 10 10 12 13 13 12 10 11 11 11 11 12 20 22 23 22 19 13 10 9 10 10 10 10 10 10 10 10 9 8 9 12 12 13 17 21 22 23 23 22 23 24 22 18 16 14 14 14 14 14 14 16 16 14 13 12 13 11 10 12 13 15 14 13 10
5 6 6 6 6 7 7 7 8 8 8 8 8 7 8 9 9 9 10 9 9 11 13 14 15 15 14 14 14 13 12 14 20 22 23 25 25 20 12 11 11 11 12 12 11 11 10 10 10 9 9 15 13 12 13 13 17 22 23 24 25 26 25 27 25 18 14 15 15 15 17 15 13 14 16 16 14 16 14 13 12 10 12 14 14
6 7 7 7 7 7 7 6 8 9 9 8 8 8 8 9 9 8 8 9 10 11 12 13 13 14 14 15 15 16 17 17 23 23 23 24 25 22 13 14 13 13 13 12 12 12 11 10 11 11 10 10 10 12 12 12 12 11 13 15 16 21 25 26 26 26 21 17 17 18 16 13 14 14 13 14 17 17 15 14 14 14 14 17 15
6 7 8 8 7 7 7 7 9 10 10 9 8 8 9 10 11 10 9 9 11 12 12 13 13 13 14 14 14 16 15 24 26 26 25 26 26 22 14 13 13 13 13 13 13 13 13 12 12 13 12 11 11 12 12 11 11 11 12 13 15 16 16 17 18 17 18 16 16 18 15 11 13 11 13 15 19 17 18 21 22 20 14 3 7
7 7 8 7 7 7 7 9 10 10 8 8 9 11 11 12 13 12 11 11 11 11 13 12 14 15 15 15 15 17 17 26 28 28 28 26 28 16 13 14 14 13 14 14 13 13 13 13 13 13 13 13 15 20 17 12 10 12 14 14 14 14 15 17 20 19 17 16 15 15 12 8 11 10 14 15 12 8 3 4 5 5 7 8 8
7 7 7 8 8 7 8 9 10 10 10 11 12 12 13 14 14 11 13 13 14 14 14 14 13 15 17 16 17 17 17 23 29 30 29 30 22 13 13 13 14 15 16 15 14 13 14 14 14 14 14 14 15 18 19 19 13 14 14 15 14 13 14 15 20 24 24 23 23 21 19 13 13 14 19 21 16 12 9 9 12 12 11 11 7
7 7 8 7 8 8 9 9 10 11 11 12 13 14 14 13 13 12 12 14 15 15 15 15 15 15 16 18 17 17 19 24 31 31 31 31 25 17 15 15 16 17 16 16 14 14 15 22 20 16 16 15 16 19 20 18 15 15 15 15 15 15 16 14 10 13 23 26 26 26 21 15 16 15 19 23 24 18 16 18 14 11 12 13 14
7 7 9 9 10 9 9 9 10 11 12 13 12 14 14 14 13 12 12 13 15 15 15 15 16 16 16 18 24 24 21 23 32 32 33 31 25 16 15 15 16 16 16 17 16 15 15 17 23 21 19 17 20 20 22 19 14 15 15 14 16 18 18 14 11 10 10 12 15 15 14 16 15 14 16 26 24 21 19 18 14 16 17 14 10
8 9 10 11 9 9 8 9 10 10 12 14 13 13 12 12 12 12 13 12 14 14 14 15 18 18 18 18 18 19 20 20 22 33 32 33 33 22 15 15 17 19 19 18 17 16 16 16 16 21 26 26 25 24 24 24 17 15 14 14 15 20 15 11 10 11 12 12 12 11 11 10 9 10 11 15 19 22 20 16 16 18 17 15 14
10 11 11 10 10 10 9 8 11 12 11 12 12 13 11 12 13 13 14 13 13 14 16 16 17 19 18 18 18 19 17 20 22 33 33 34 36 31 19 19 19 19 20 20 18 18 16 16 15 17 24 25 26 26 26 26 24 17 16 15 17 17 13 8 14 20 13 12 11 11 11 10 10 10 11 13 14 15 15 14 15 15 14 14 14
10 10 11 11 11 11 10 10 10 11 11 11 12 14 12 11 12 13 12 13 15 17 16 15 15 17 17 16 16 17 19 27 22 29 33 34 34 36 23 20 22 19 21 20 20 18 19 17 16 16 22 24 24 25 27 26 28 19 17 21 22 21 15 11 12 11 12 12 12 12 12 12 13 13 13 14 14 15 14 13 12 12 11 10 15
10 10 11 12 12 12 12 12 12 10 11 11 12 15 13 12 13 13 13 14 15 16 16 14 14 15 16 13 12 13 15 16 25 23 29 31 32 31 34 28 33 25 21 21 21 20 18 18 18 22 21 23 25 26 26 28 25 20 24 24 23 22 18 11 10 11 12 13 13 13 14 14 14 15 14 14 13 13 13 12 12 12 9 4 4
10 11 11 12 12 12 12 12 11 11 11 12 13 14 14 13 12 11 11 12 12 14 13 12 13 14 15 15 13 12 12 13 19 27 25 31 30 32 34 35 35 24 21 19 19 20 19 18 15 19 23 25 27 27 27 26 18 21 26 26 25 22 14 12 12 12 13 13 14 14 15 14 14 14 14 13 11 11 11 9 9 10 8 5 7
11 12 12 12 12 12 12 11 12 12 11 11 13 13 14 12 12 11 10 11 12 13 14 12 13 14 15 15 14 12 10 12 11 17 27 28 32 33 34 35 34 34 25 20 20 19 21 27 26 26 26 27 30 30 26 27 29 25 26 26 25 15 14 13 13 12 13 14 14 15 14 13 14 13 10 8 8 9 9 7 6 6 7 8 8
12 12 12 12 12 12 14 14 12 11 12 11 11 11 12 12 12 12 11 12 12 13 14 13 13 14 14 14 13 14 12 12 13 14 18 23 25 31 36 36 35 34 30 24 30 33 32 31 35 35 33 27 20 17 15 15 22 26 26 26 17 14 13 13 13 14 14 14 14 14 13 10 10 10 10 10 10 11 11 10 10 8 9 10 11
13 12 12 12 12 11 13 12 12 12 10 10 9 9 10 11 12 12 12 13 13 13 14 13 14 14 15 15 15 15 14 11 12 12 12 14 14 18 19 21 28 30 21 19 20 19 21 23 16 20 19 26 27 22 18 18 17 17 15 15 14 14 13 13 14 15 14 13 12 12 10 9 8 9 10 11 12 11 11 12 11 10 9 9 13
12 13 14 12 11 11 12 13 14 12 11 10 11 11 10 10 12 13 12 13 14 15 14 15 15 16 16 16 16 16 14 12 11 12 13 14 14 15 15 16 17 16 17 17 18 17 13 11 15 14 14 15 16 14 14 13 13 12 13 13 13 14 15 17 16 12 12 12 11 10 8 9 10 11 10 10 11 11 11 12 12 12 11 11 13
12 13 12 11 12 11 11 11 11 12 13 12 10 10 12 12 13 13 13 12 12 14 15 15 15 14 14 14 15 16 15 14 12 15 18 22 21 17 14 13 14 16 21 28 23 19 16 14 11 12 12 13 13 13 13 13 13 13 15 13 12 12 12 11 13 14 13 12 12 12 11 10 10 9 10 11 11 11 11 11 10 12 11 10 13
12 12 11 11 11 11 11 11 11 12 12 13 13 12 13 22 19 16 15 22 30 32 27 20 19 17 17 15 13 16 16 16 27 35 35 34 34 34 31 31 29 25 29 36 26 18 15 13 14 13 12 11 12 12 13 13 13 13 13 15 14 12 12 11 12 12 11 12 12 12 11 11 11 11 11 12 10 10 11 12 11 11 13 12 12
11 11 11 11 12 13 12 12 11 11 12 12 12 13 13 12 20 28 27 28 29 31 31 34 35 33 25 20 21 33 36 37 36 33 33 32 32 32 32 31 32 31 31 24 19 16 15 14 13 13 12 12 11 11 12 12 12 12 12 11 12 13 13 11 11 11 12 12 12 12 12 12 12 12 13 12 12 10 9 8 10 11 12 12 11
11 12 11 11 12 12 11 12 12 12 11 11 12 13 13 14 13 17 25 27 28 30 31 33 33 32 34 30 25 19 26 32 35 33 33 33 31 31 31 31 31 31 31 32 20 15 13 13 13 13 12 11 11 11 11 12 11 11 10 10 11 11 12 12 12 12 12 12 12 12 12 12 12 12 11 11 11 11 11 11 10 11 10 9 10
12 13 12 12 12 12 12 12 11 11 12 12 12 12 13 13 16 16 14 21 27 28 29 31 32 32 32 32 34 31 31 31 34 33 32 32 32 30 30 32 30 31 32 21 15 14 12 13 12 12 12 12 11 10 11 12 11 10 10 11 11 11 11 11 11 11 12 12 12 12 12 12 12 11 11 12 12 12 11 11 10 10 10 10 9
12 11 11 12 12 12 11 11 11 11 10 11 12 13 13 13 15 16 17 15 14 17 23 27 30 31 31 32 32 32 32 34 34 33 31 30 29 29 28 23 29 31 26 18 15 14 13 13 15 14 13 12 10 9 10 10 10 9 10 10 10 9 8 8 10 11 11 11 12 12 12 12 13 13 12 11 11 12 12 12 12 12 11 11 11
11 13 19 15 10 11 11 11 11 11 11 11 12 12 13 14 13 15 15 16 17 16 14 14 19 27 25 24 28 32 32 32 31 30 31 30 30 31 31 18 15 12 13 12 12 11 12 14 14 14 13 12 10 8 8 9 9 9 9 9 8 7 8 9 10 10 10 10 11 11 12 13 13 13 14 14 12 12 12 12 12 12 13 11 11
11 10 10 11 10 10 11 11 11 11 11 12 11 12 13 13 14 14 14 15 15 16 15 14 14 19 33 31 31 29 30 30 29 30 29 30 30 31 16 12 12 11 12 11 11 11 12 12 13 13 12 12 10 8 8 9 9 9 9 8 7 8 9 9 9 9 10 11 11 12 12 13 14 13 12 13 16 15 13 12 11 10 10 10 10
10 10 9 9 10 11 11 11 11 11 13 13 12 12 12 13 13 13 13 14 15 14 15 15 14 14 19 16 18 24 30 28 28 29 29 28 30 19 12 13 12 13 12 12 11 11 11 12 13 13 12 10 9 9 9 10 10 9 7 7 8 9 9 10 10 10 11 11 11 13 14 13 13 13 14 14 12 11 11 11 11 11 10 11 11
10 10 9 10 10 11 11 11 11 15 12 11 11 11 12 13 13 13 14 14 15 15 15 15 15 15 15 16 21 15 17 26 29 23 20 18 14 11 11 11 11 10 11 11 11 11 11 11 12 12 9 6 6 6 7 8 8 7 7 7 8 8 12 12 14 14 13 12 11 11 10 10 11 11 12 12 13 12 11 11 11 11 10 12 11
9 14 18 20 17 12 10 10 11 10 10 11 11 12 13 13 13 13 13 13 13 14 14 14 13 13 14 13 13 16 18 14 12 13 14 14 13 12 11 10 11 11 9 8 10 10 10 11 11 11 10 8 7 7 8 7 7 7 7 8 8 8 10 8 10 9 10 10 10 10 10 10 10 10 11 12 12 12 12 12 11 11 12 11 10
10 9 11 19 13 13 11 10 10 10 11 11 11 11 12 12 12 13 13 13 14 13 13 13 14 13 13 13 13 13 13 14 13 13 13 13 13 12 11 12 12 12 11 10 8 8 11 11 11 9 6 6 6 6 6 7 7 7 8 9 9 10 10 10 10 10 10 9 10 10 11 11 11 10 10 10 11 11 12 12 11 11 10 10 10
9 10 10 13 15 13 11 10 9 9 10 11 11 11 11 12 13 13 12 13 13 13 13 13 13 13 13 18 28 26 15 13 12 12 11 12 12 12 12 11 11 12 11 11 11 11 11 11 7 5 5 5 4 5 6 6 7 7 8 8 8 9 8 8 8 9 9 10 10 10 10 10 11 11 11 9 11 11 10 10 10 9 9 9 10
9 9 10 10 11 10 10 10 10 11 10 11 11 11 11 12 12 11 13 13 12 13 13 12 12 12 18 31 26 29 17 11 12 12 12 12 12 12 12 11 11 11 10 10 11 8 0 2 3 4 4 4 5 5 6 7 8 8 8 8 8 8 8 8 8 8 9 9 10 10 11 11 11 10 11 12 11 10 10 10 10 10 10 10 9
8 8 9 10 10 9 9 10 10 10 10 10 10 11 13 12 11 12 12 12 12 13 12 12 12 13 15 22 23 24 12 11 11 12 11 11 11 11 11 11 11 10 10 9 8 9 6 1 2 2 1 3 6 8 9 9 8 7 7 8 8 8 9 8 8 8 8 9 9 10 11 11 11 10 10 10 11 11 10 11 10 10 10 10 10
8 9 9 10 10 9 9 8 9 9 9 12 14 13 12 11 10 10 11 11 11 11 12 12 12 13 13 15 16 13 10 11 11 10 11 11 11 11 11 11 11 10 10 10 10 8 7 7 6 6 7 6 7 6 4 3 5 7 8 8 8 9 9 9 10 10 11 10 10 11 10 11 11 11 11 11 12 12 11 11 11 10 10 9 9
7 8 8 9 9 8 8 7 8 9 11 11 9 10 11 10 10 10 10 10 12 12 11 11 12 13 13 12 12 12 11 10 12 12 11 11 10 10 10 10 11 11 9 9 9 10 9 8 7 8 8 7 7 7 6 5 5 4 4 7 9 10 9 10 9 9 10 12 11 11 11 11 11 11 11 11 12 12 12 11 11 10 11 10 10
7 7 9 8 9 9 9 8 9 8 8 8 10 10 10 10 9 10 11 11 12 11 11 11 11 11 11 11 11 12 11 10 10 10 11 10 10 10 10 10 9 9 9 9 9 10 8 8 8 7 7 7 7 7 6 7 6 6 6 6 6 7 7 7 8 10 10 11 12 12 12 11 11 11 12 12 10 10 11 10 10 10 10 10 10
7 7 8 8 8 9 9 9 8 8 8 9 9 9 10 10 10 10 11 12 12 11 10 10 10 10 10 10 10 10 10 10 10 10 11 11 11 11 11 10 10 10 9 9 9 9 9 9 9 8 8 7 7 8 7 7 6 6 7 7 7 8 7 7 8 8 9 9 11 12 12 12 12 11 12 11 10 11 11 11 10 11 9 9 9
6 7 7 8 7 7 7 7 8 10 9 9 9 9 9 10 10 10 10 10 11 10 10 10 9 10 10 10 10 9 9 9 9 10 9 10 10 10 11 11 10 10 9 9 10 9 9 8 9 9 9 9 8 8 7 7 7 7 7 7 7 8 11 12 9 9 8 8 8 10 11 12 11 11 11 11 11 11 11 10 10 9 9 9 8
6 6 7 7 7 7 7 8 8 8 8 8 9 9 9 9 9 9 9 9 10 10 9 10 10 10 10 10 10 9 9 9 9 9 9 9 9 9 9 10 10 10 9 9 10 10 10 10 10 9 9 8 8 8 8 8 8 7 8 8 12 19 17 17 11 10 12 10 9 9 9 10 11 11 11 11 11 10 9 9 9 9 8 8 8
5 6 6 6 7 7 7 7 6 7 8 7 7 8 8 9 9 9 10 9 9 9 10 10 10 10 10 11 11 10 9 9 9 9 9 9 9 9 9 10 10 10 10 10 10 10 10 10 10 10 9 9 9 8 8 8 8 8 8 10 17 18 17 19 19 19 13 9 10 9 10 10 11 10 10 10 10 11 10 9 9 8 8 8 7
6 6 6 6 6 6 6 6 7 7 7 7 7 7 8 8 8 8 9 10 10 10 10 10 10 10 10 10 10 10 10 10 9 9 9 9 10 10 10 10 11 10 10 11 10 10 10 9 9 9 9 9 9 9 8 9 9 10 14 19 20 20 19 16 13 16 18 13 10 10 10 11 11 11 10 9 9 9 10 9 9 8 7 7 7
Wind_Direction
3 341 348 338 6 356 353 359 359 359 3 1 7 352 351 349 348 348 339 348 346 343 343 339 336 332 327 326 324 317 302 286 278 273 265 262 256 246 248 244 245 248 245 250 244 239 243 246 246 243 232 231 237 236 234 234 235 237 224 213 216 203 178 187 202 216 167 148 160 171 174 158 172 179 175 174 178 179 169 169 169 163 167 175 183
359 338 331 324 338 331 336 341 348 352 7 354 4 351 348 346 340 345 345 334 342 337 336 333 334 332 330 323 321 319 319 308 292 286 277 273 268 257 252 246 245 246 240 248 247 244 239 243 246 244 233 237 239 237 232 231 224 229 233 215 217 215 201 182 200 180 191 142 146 137 163 175 175 181 179 178 186 176 175 173 169 168 171 174 180
347 340 341 340 336 325 333 337 346 349 6 346 5 345 342 337 337 343 334 330 330 330 324 325 324 326 325 324 320 318 314 314 310 301 288 276 270 266 256 248 243 242 240 240 243 243 247 245 245 237 233 242 242 240 237 234 227 227 230 221 223 220 214 203 175 191 176 192 168 162 174 182 186 186 187 179 176 182 174 178 171 171 175 175 178
345 339 339 344 335 345 349 343 353 338 342 329 353 332 334 327 331 339 329 329 330 325 322 314 315 316 317 315 316 313 312 305 304 300 291 286 278 271 265 256 248 243 238 237 238 240 244 249 246 233 229 240 242 240 238 237 234 231 231 225 224 223 213 212 206 179 177 164 194 179 183 173 192 163 168 145 161 182 193 169 158 172 174 176 177
3 339 339 343 335 342 344 349 348 339 329 323 334 334 335 330 327 330 323 318 317 319 316 316 314 312 312 310 309 308 303 301 299 297 290 285 281 279 275 268 260 251 242 237 235 238 243 246 247 232 230 239 242 240 236 238 237 235 233 229 225 221 216 212 213 182 167 183 172 188 169 174 157 155 166 161 163 169 179 189 188 178 177 183 178
7 1 343 351 340 342 343 347 344 339 329 322 328 333 331 333 333 333 329 316 309 302 300 303 302 304 302 299 294 292 292 294 291 286 284 280 276 272 273 272 269 263 255 248 244 240 247 247 245 239 239 241 244 236 233 236 236 236 236 234 228 222 219 220 210 197 185 183 165 156 178 171 168 181 183 171 165 167 175 184 175 186 176 181 193
1 4 352 353 348 340 343 341 337 334 329 324 329 334 330 329 333 327 324 320 318 319 317 311 305 301 300 296 292 288 285 282 283 281 278 273 266 263 262 263 265 266 264 264 261 257 253 252 248 243 244 244 245 239 233 235 232 235 234 233 228 223 222 220 212 202 189 171 181 177 169 187 177 176 184 177 172 172 169 164 193 200 187 180 186
355 353 348 341 335 328 325 326 327 322 321 322 324 323 321 322 321 317 319 317 314 310 307 306 306 310 303 300 295 293 284 278 272 271 267 264 263 260 259 260 262 263 264 261 261 261 260 258 254 249 247 247 245 243 234 237 233 236 233 227 224 224 225 221 213 210 198 184 179 177 181 171 175 118 123 146 157 176 188 183 193 187 192 195 191
336 335 334 324 314 314 314 314 310 309 309 315 316 316 317 316 315 312 305 300 297 295 296 295 295 292 288 288 293 293 291 285 278 272 275 272 266 265 265 265 265 268 266 261 256 257 258 257 257 255 250 250 246 243 239 234 232 237 233 222 223 223 226 223 215 213 211 192 191 176 169 177 180 162 170 182 187 192 188 189 200 188 180 175 195
311 309 299 288 292 300 304 307 308 305 306 303 298 299 302 304 306 307 304 297 291 288 287 283 280 282 286 286 284 281 276 276 276 274 269 267 269 269 267 263 263 266 268 270 263 254 251 252 252 252 253 252 250 247 246 242 237 234 233 217 219 220 220 218 215 215 212 205 196 180 181 190 186 187 185 193 190 176 170 181 186 182 161 185 184
297 285 284 284 291 296 300 297 300 300 296 299 297 292 284 281 285 290 295 298 300 300 294 289 283 276 275 275 276 276 278 280 274 268 266 267 269 268 267 269 263 260 261 261 266 263 258 251 250 250 249 251 252 251 247 245 243 241 238 229 220 217 217 216 216 210 212 215 202 193 196 197 196 189 193 182 183 186 184 181 185 169 181 172 198
291 282 278 286 291 293 290 290 285 280 283 284 288 289 290 292 292 293 296 300 300 302 302 299 297 292 285 277 271 267 265 259 270 277 278 278 276 271 263 262 265 265 262 259 256 257 257 257 252 248 244 243 245 247 246 245 245 244 243 238 233 226 219 215 216 213 210 216 211 205 203 207 197 188 190 180 184 183 185 187 187 184 182 193 195
301 295 290 289 287 284 282 280 280 282 280 276 272 276 278 280 282 285 286 290 298 299 299 303 301 300 298 296 291 284 279 269 271 272 276 278 278 277 271 266 266 265 261 259 258 255 252 252 258 250 246 243 241 241 245 247 243 242 243 242 240 235 230 226 222 218 208 215 218 216 211 206 197 198 194 183 172 179 185 192 196 193 195 197 200
299 293 291 285 280 277 275 278 280 281 281 279 278 277 276 273 276 279 285 288 285 286 286 284 285 287 290 292 293 292 288 281 277 274 271 271 273 274 268 269 269 265 261 256 255 255 250 249 252 254 250 244 237 238 239 242 244 241 239 239 241 240 237 233 229 225 219 216 216 222 218 197 204 199 187 172 176 188 186 192 189 191 195 206 202
290 286 285 285 284 283 284 284 284 284 281 280 282 284 288 290 286 284 283 283 286 286 286 286 282 281 281 280 281 281 280 281 281 280 276 272 270 269 266 266 266 264 261 258 254 252 251 249 247 249 251 246 240 236 236 235 234 235 234 233 236 239 238 236 232 227 224 224 225 227 223 202 209 194 177 189 192 190 186 189 187 192 191 107 59
284 285 285 286 287 289 294 293 290 289 291 295 297 296 296 294 294 295 292 286 279 278 278 276 279 280 279 278 279 278 278 279 281 280 279 278 275 269 263 259 259 260 261 260 256 252 252 249 248 248 246 244 242 239 235 233 230 229 231 233 235 236 238 237 236 232 229 228 229 230 228 205 202 186 179 185 191 178 116 59 69 91 126 159 167
287 288 289 293 295 297 299 299 298 300 303 303 301 300 299 296 293 293 291 289 288 286 282 281 280 279 280 278 275 274 275 276 278 278 278 278 278 272 269 266 262 260 258 256 254 253 251 248 247 249 246 244 238 235 231 231 231 229 230 232 233 233 238 236 236 235 233 232 233 231 229 208 196 176 176 177 179 171 156 162 188 176 166 171 178
292 294 294 302 305 308 307 305 304 306 308 303 300 298 295 293 291 295 292 293 290 288 287 286 281 277 276 275 273 275 276 276 276 276 276 276 275 274 271 269 264 261 260 256 255 253 249 246 244 245 246 245 237 233 229 226 229 230 230 230 232 234 238 234 226 229 231 233 233 233 223 205 211 189 180 181 177 170 174 193 187 165 185 189 183
304 306 307 308 307 308 310 311 307 306 302 299 300 298 297 296 294 295 290 288 285 287 285 284 284 281 278 277 279 278 277 278 278 279 278 278 278 276 274 272 271 266 264 262 256 253 252 250 245 241 241 241 237 233 228 225 227 227 229 227 230 233 236 226 219 221 219 221 228 225 219 212 210 206 199 190 180 182 192 192 168 179 191 193 169
311 310 308 307 309 311 312 309 304 303 300 298 295 290 291 293 293 293 290 288 288 287 287 287 287 285 285 283 281 278 280 279 280 281 281 280 278 277 275 274 270 270 268 266 264 256 251 250 245 239 239 238 236 233 231 224 223 227 226 225 226 235 232 222 204 214 215 213 218 212 210 197 193 194 195 194 191 192 194 191 185 187 190 182 178
312 311 311 309 309 308 307 304 301 297 293 292 293 292 292 292 293 291 290 289 287 286 287 288 286 284 283 282 282 282 280 283 284 283 282 280 278 276 274 270 270 270 270 266 260 259 253 246 246 236 237 239 238 233 229 228 227 226 224 223 224 231 223 192 206 209 209 210 210 210 208 203 197 194 194 196 196 198 199 196 193 195 188 182 180
314 313 310 308 307 304 302 299 294 293 294 293 292 289 288 286 286 289 288 288 288 286 286 286 285 283 282 281 281 283 285 286 286 286 285 283 281 277 273 268 266 265 265 262 260 256 251 249 245 237 234 236 238 236 232 228 227 228 224 223 224 223 216 199 205 203 206 207 206 207 208 206 205 203 200 199 199 196 197 195 193 197 200 193 183
313 310 308 306 305 303 301 299 298 297 293 291 289 289 292 290 287 285 286 286 285 286 286 286 284 282 284 282 281 282 282 282 285 287 289 290 288 286 281 277 273 269 262 260 258 256 254 251 247 242 235 234 238 239 237 233 229 226 223 222 220 215 209 209 197 201 205 208 204 206 207 207 206 206 203 204 200 194 195 195 189 188 190 164 171
309 305 303 302 302 301 300 300 298 295 294 293 289 288 289 288 285 284 285 284 286 286 285 286 285 286 288 289 290 287 287 289 291 291 292 292 292 291 290 286 282 274 266 259 259 254 253 251 246 241 240 239 240 240 237 234 228 222 222 222 219 215 211 211 203 204 204 207 206 208 209 207 208 208 207 201 195 186 188 187 182 178 155 122 111
306 302 301 301 300 300 299 298 298 295 293 291 292 292 289 288 288 287 284 284 284 285 287 288 285 286 287 288 290 288 285 287 286 296 299 302 301 298 294 289 284 280 277 272 259 254 251 252 249 247 248 245 243 242 239 237 232 226 223 222 220 216 214 209 208 202 207 208 210 211 210 206 206 209 200 184 167 164 167 164 157 131 111 101 95
304 301 301 300 300 302 301 299 294 290 289 287 283 284 287 292 291 293 290 286 285 285 287 286 283 283 281 283 284 285 286 284 287 290 293 293 295 297 296 294 294 293 286 272 269 265 259 254 252 253 254 250 244 242 242 235 231 227 222 220 218 216 212 212 205 204 208 210 212 211 210 200 199 196 183 170 168 175 168 162 149 140 135 127 110
300 301 301 302 301 301 298 300 299 296 292 290 286 287 293 294 293 293 291 289 287 284 285 283 284 281 280 281 280 280 279 276 276 277 276 279 280 285 291 298 298 298 299 297 284 267 266 261 256 254 251 252 251 247 240 232 228 226 225 220 218 214 213 211 207 204 205 207 209 208 204 192 175 165 171 173 179 174 167 162 161 158 144 140 127
301 303 304 304 302 303 300 297 298 299 299 298 300 300 293 291 291 289 290 287 286 285 281 281 280 279 279 279 280 278 275 271 265 269 270 271 271 275 279 281 285 287 294 295 299 296 281 270 270 269 267 262 253 242 234 229 224 224 222 220 218 216 215 209 209 209 204 203 202 197 185 174 176 178 172 174 175 171 167 167 164 161 156 144 122
299 299 301 303 302 302 298 299 300 301 301 299 290 290 297 293 285 279 269 266 267 272 275 275 271 271 270 275 281 280 277 275 268 264 267 272 275 275 266 265 272 281 281 285 289 290 290 277 257 255 251 249 246 241 234 225 222 218 218 216 216 213 211 202 203 204 203 193 192 189 188 178 178 169 171 173 177 169 168 166 165 157 161 164 162
302 301 303 302 302 302 301 300 300 299 299 298 298 289 274 287 291 291 291 288 288 288 288 288 289 289 288 283 279 286 290 288 291 292 292 292 289 288 287 285 284 283 285 287 286 284 282 281 270 254 240 234 235 237 235 227 220 214 214 216 215 212 207 202 201 202 194 191 186 186 179 175 174 175 174 177 169 167 170 167 167 163 163 171 168
301 301 304 302 302 303 302 301 299 296 294 294 294 293 294 282 285 289 290 292 293 292 292 291 293 293 293 293 292 291 293 296 298 297 296 294 292 289 287 285 285 284 283 285 290 285 279 272 271 258 242 230 229 235 234 229 220 216 213 213 215 212 210 200 199 193 189 186 185 181 176 175 175 174 176 173 166 162 163 163 162 168 173 170 165
299 300 301 298 300 298 296 297 296 294 293 292 293 295 295 297 291 285 291 294 294 294 294 294 294 295 295 295 296 296 295 296 297 296 295 293 292 291 288 286 284 283 282 281 277 270 272 272 267 264 253 240 232 232 234 231 223 218 215 213 213 209 205 203 194 188 185 184 179 176 174 174 172 170 169 163 158 163 162 165 170 173 171 173 171
293 295 296 296 296 296 297 294 291 292 294 297 297 296 298 300 301 303 292 289 292 294 294 294 296 297 297 298 298 298 299 299 298 298 296 294 291 288 286 283 282 280 282 278 269 273 272 273 267 263 260 249 238 230 230 227 224 218 213 215 212 209 204 199 182 182 183 182 174 173 169 165 163 161 163 159 162 166 167 168 170 169 168 167 170
289 290 293 295 297 296 293 289 290 291 291 292 293 295 295 296 296 296 301 303 296 290 290 293 295 298 298 298 299 300 300 298 299 299 299 297 293 291 287 284 281 279 276 272 267 264 267 270 271 266 259 253 242 229 227 223 219 221 218 216 214 204 193 173 176 181 182 172 171 168 163 161 161 161 162 165 169 166 168 172 171 171 177 175 169
291 289 289 293 293 291 288 288 290 290 293 293 294 294 293 294 293 296 298 300 301 302 303 297 293 297 299 300 300 301 302 302 302 301 301 299 297 293 293 288 282 273 268 265 264 263 266 268 264 257 251 248 234 220 224 226 222 221 220 213 202 180 171 175 179 176 170 166 162 164 164 162 166 167 165 165 167 173 176 174 177 178 174 169 167
294 292 292 291 291 285 285 286 288 291 292 291 290 290 294 294 296 295 294 292 294 297 297 295 295 297 301 302 302 303 302 303 302 301 299 298 297 298 294 281 273 259 254 254 254 256 256 261 266 262 249 235 219 212 216 226 226 222 218 202 180 172 169 169 168 164 166 164 164 162 163 168 169 167 166 167 171 173 172 173 173 174 171 170 167
294 291 292 293 291 287 286 285 287 289 295 296 296 296 294 293 292 292 292 293 293 292 293 297 300 298 302 298 296 303 305 303 303 302 301 299 298 298 283 279 270 266 254 251 251 250 253 256 262 265 250 225 208 207 207 216 219 215 192 178 171 166 169 167 165 162 162 168 171 171 171 170 167 167 163 165 167 166 166 165 164 164 165 165 160
288 288 288 292 290 290 289 289 291 297 298 295 294 293 293 293 293 292 293 293 293 295 297 298 299 299 301 300 307 306 305 307 307 302 297 297 296 293 290 287 283 277 263 247 245 248 254 259 262 263 243 213 208 207 216 216 206 189 170 165 169 174 168 166 169 170 172 169 168 167 163 161 162 161 160 162 162 162 162 162 161 162 161 164 162
290 295 301 303 300 295 290 293 295 297 295 296 296 296 296 296 296 295 295 294 295 294 293 294 295 296 296 299 301 303 308 305 304 303 306 305 304 301 298 299 303 301 281 256 243 245 246 254 255 249 228 208 201 203 202 198 181 174 160 155 159 161 168 166 168 166 163 163 160 156 155 157 157 161 161 158 159 159 159 157 160 159 160 162 164
298 302 303 304 299 294 291 293 297 297 297 299 299 298 297 297 296 297 296 297 297 297 297 296 297 295 299 301 298 298 296 296 297 299 300 300 301 309 316 314 310 303 299 294 281 258 251 250 245 226 204 203 201 201 193 170 171 161 156 157 159 168 171 167 164 163 162 157 154 154 154 154 154 153 155 157 154 153 154 157 159 159 159 155 151
295 297 300 301 297 297 295 293 295 297 299 299 298 298 298 299 301 301 301 300 300 302 303 302 301 302 304 308 315 323 325 318 313 311 310 316 322 320 314 309 307 305 304 297 287 274 259 241 213 188 186 187 181 168 159 159 151 154 160 162 163 163 160 158 157 154 149 147 148 147 148 147 148 149 148 146 148 146 145 145 143 143 142 142 142
295 299 301 298 297 293 295 300 300 301 301 302 303 304 304 306 306 307 308 307 307 307 308 310 313 314 315 322 327 332 332 327 327 322 323 323 321 317 315 312 312 314 314 320 315 295 280 121 140 157 152 144 143 148 149 157 163 161 161 157 154 145 140 145 146 143 143 144 143 146 146 147 147 143 142 143 139 138 139 141 140 139 139 142 141
297 301 301 298 295 295 300 301 304 305 309 310 308 311 311 309 309 311 310 310 312 314 317 317 316 319 321 325 330 334 331 325 325 323 322 326 324 322 321 319 320 321 326 332 339 341 328 28 58 60 111 153 163 167 174 171 164 150 146 147 144 140 137 134 134 133 131 131 134 136 136 140 139 134 135 133 135 136 137 138 137 137 140 139 141
306 307 303 296 295 296 295 299 304 307 307 313 314 314 315 315 312 311 312 314 315 320 319 319 322 326 325 328 332 333 330 329 325 327 328 328 327 325 326 325 327 331 339 344 349 352 360 2 16 28 29 27 21 30 42 80 134 150 145 140 137 137 139 140 144 145 144 139 137 136 136 135 135 135 134 137 136 136 136 135 137 138 138 138 136
309 309 304 301 299 301 303 305 306 309 314 315 315 315 318 319 316 317 317 317 324 325 324 324 327 326 326 327 329 330 331 329 331 332 332 331 330 333 331 329 333 331 336 341 350 1 10 15 22 35 38 32 33 41 56 59 57 77 117 136 142 147 151 150 147 141 139 137 137 136 136 136 136 137 138 139 140 137 138 140 140 135 134 136 140
311 308 303 300 303 305 308 310 316 317 317 321 320 321 321 321 321 323 326 326 327 326 325 325 325 325 325 324 326 329 328 329 334 333 332 333 334 333 335 336 333 333 345 353 359 12 16 22 28 34 41 40 42 50 56 59 60 70 81 83 97 103 108 113 122 129 138 139 139 138 136 134 135 140 140 139 137 134 131 131 132 136 139 139 142
310 303 302 302 303 305 308 314 319 324 328 325 325 323 323 325 326 327 327 328 328 326 326 325 326 327 326 325 326 329 332 338 338 340 338 339 339 337 341 341 344 351 353 355 5 12 19 26 28 32 36 42 48 50 53 55 63 66 70 80 89 98 99 106 111 121 125 131 134 135 136 136 134 133 131 129 128 129 130 132 135 136 135 138 139
308 304 301 303 304 307 313 319 323 328 327 327 327 324 324 327 328 329 330 332 333 332 332 331 333 332 331 330 331 333 338 342 343 342 343 343 345 347 352 353 351 356 353 0 5 8 14 25 31 34 33 34 41 44 44 53 57 67 70 76 84 96 103 104 106 107 110 115 118 125 129 129 129 129 131 131 130 132 129 129 128 127 131 135 140
307 307 304 308 310 317 321 324 327 327 327 328 327 328 330 332 331 331 330 332 334 337 337 341 341 342 343 340 341 341 343 348 347 350 349 350 351 354 355 356 353 360 357 4 10 11 13 15 21 31 38 39 38 43 44 48 59 63 79 88 101 104 106 111 109 107 109 108 108 110 111 114 119 121 120 120 120 119 117 119 123 126 127 131 135
307 306 304 308 315 319 322 323 321 322 326 326 327 329 330 332 334 336 336 337 339 344 348 348 350 350 350 350 351 351 352 357 359 358 356 357 357 357 359 4 9 11 12 14 16 16 18 20 22 27 32 36 40 42 47 48 55 68 76 95 100 102 105 109 113 116 112 106 109 111 114 115 113 113 113 116 118 122 122 125 126 126 127 128 131
310 309 308 308 312 318 326 329 332 334 331 330 332 331 332 334 334 335 340 343 345 349 350 350 349 352 356 354 353 354 357 359 2 2 3 2 1 2 8 12 15 16 20 22 24 24 24 25 29 30 34 36 38 42 48 57 63 76 87 91 95 99 101 104 106 109 109 109 106 109 113 116 117 114 115 114 116 117 122 122 124 125 125 128 128